This is the latest recevied weather packets stored in our database for station/object W0CHP-13. If no packets are shown the sender has not sent any weather packets the latest 10 day(s).
| Time | Temp. | Humidity | Pressure | Rain* | Wind** | Luminosity | Snow |
|---|---|---|---|---|---|---|---|
| 1778184195 | 14.44° C | 25% | 1008.9 hPa | 0 mm | - | 691 W/m² | - |
| 1778183597 | 15° C | 24% | 1008.9 hPa | 0 mm | - | 705 W/m² | - |
| 1778182995 | 15° C | 27% | 1009 hPa | 0 mm | - | 720 W/m² | - |
| 1778182398 | 15° C | 24% | 1009.2 hPa | 0 mm | - | 735 W/m² | - |
| 1778181796 | 15° C | 23% | 1009.4 hPa | 0 mm | - | 748 W/m² | - |
| 1778181198 | 15.56° C | 23% | 1009.2 hPa | 0 mm | - | 758 W/m² | - |
| 1778180596 | 15° C | 26% | 1009.6 hPa | 0 mm | - | 768 W/m² | - |
| 1778179998 | 15° C | 28% | 1009.2 hPa | 0 mm | - | 777 W/m² | - |
| 1778179397 | 15.56° C | 28% | 1009.2 hPa | 0 mm | - | 785 W/m² | - |
| 1778178795 | 15.56° C | 27% | 1009.6 hPa | 0 mm | - | 794 W/m² | - |
| 1778178197 | 15° C | 28% | 1009.6 hPa | 0 mm | - | 800 W/m² | - |
| 1778177595 | 15° C | 28% | 1009.4 hPa | 0 mm | - | 798 W/m² | - |
| 1778176997 | 15.56° C | 27% | 1009.6 hPa | 0 mm | - | 546 W/m² | - |
| 1778176395 | 15.56° C | 31% | 1009.6 hPa | 0 mm | - | 792 W/m² | - |
| 1778175797 | 15.56° C | 28% | 1009.6 hPa | 0 mm | - | 780 W/m² | - |
| 1778175196 | 15.56° C | 30% | 1009.9 hPa | 0 mm | - | 780 W/m² | - |
| 1778174598 | 16.11° C | 30% | 1009.9 hPa | 0 mm | - | 780 W/m² | - |
| 1778173996 | 16.11° C | 29% | 1010.3 hPa | 0 mm | - | 772 W/m² | - |
| 1778173398 | 16.67° C | 27% | 1010.3 hPa | 0 mm | - | 764 W/m² | - |
| 1778172796 | 16.67° C | 28% | 1010.3 hPa | 0 mm | - | 748 W/m² | - |
| 1778172198 | 17.78° C | 34% | 1010.5 hPa | 0 mm | - | 733 W/m² | - |
| 1778171596 | 17.22° C | 32% | 1010.4 hPa | 0 mm | - | 683 W/m² | - |
| 1778170999 | 16.11° C | 32% | 1010.4 hPa | 0 mm | - | 705 W/m² | - |
| 1778170397 | 16.67° C | 36% | 1010.5 hPa | 0 mm | - | 688 W/m² | - |
| 1778169795 | 15° C | 35% | 1010.6 hPa | 0 mm | - | 671 W/m² | - |
* Rain latest hour (hover to see other rain measurements)
** Current wind speed in m/s (hover to see current wind gust speed)